Terug naar catalogus

STARLINK-34205

ActiefCommunicatieVLEO
NORAD 64741·PAYLOAD·🇺🇸 United States

Gelanceerd Jul 2, 2025 vanaf Cape Canaveral Space Force Station

Loading…

Volgende Passages (komende 24 uur)

TLE

VersSource: CelesTrak SupGP

Epoch: Sep 14, 2026, 21:34 UTC

1 64741C 25144T   26257.89909722  .00022560  00000+0  66662-3 0  2576
2 64741  53.1604  19.6339 0001191  71.1672  36.3199 15.34375373    13

Volg STARLINK-34205 in realtime met AllMySat

Download on the App Store